Total_Precipitation_Accumulation
0.87 0.90 0.89 0.91 0.95 0.98 0.94 0.86 0.81 0.77 0.74 0.73 0.68 0.65 0.65 0.66 0.65 0.67 0.63 0.60 0.58 0.58 0.57 0.59 0.64 0.64 0.67 0.69 0.71 0.82 0.98 1.09 1.19 1.03 0.90 0.94 0.98 0.93 0.96 0.94 0.89 0.87 0.97
0.73 0.76 0.77 0.74 0.71 0.72 0.75 0.74 0.69 0.67 0.66 0.65 0.59 0.53 0.51 0.49 0.47 0.45 0.44 0.44 0.46 0.48 0.49 0.52 0.55 0.57 0.59 0.62 0.67 0.75 0.87 1.04 1.21 1.18 1.02 1.02 1.02 1.00 1.06 1.05 0.93 0.82 0.87
0.66 0.67 0.65 0.64 0.60 0.59 0.60 0.59 0.57 0.57 0.57 0.55 0.52 0.49 0.44 0.43 0.40 0.36 0.37 0.38 0.40 0.41 0.45 0.50 0.55 0.63 0.65 0.67 0.72 0.75 0.81 0.90 1.10 1.22 1.14 1.12 1.17 1.19 1.31 1.21 1.05 1.01 0.83
0.63 0.62 0.60 0.62 0.60 0.56 0.53 0.52 0.51 0.51 0.54 0.56 0.55 0.45 0.37 0.33 0.32 0.31 0.30 0.32 0.34 0.37 0.42 0.49 0.56 0.66 0.73 0.75 0.74 0.77 0.82 0.91 1.02 1.18 1.22 1.22 1.26 1.32 1.37 1.35 1.19 1.04 0.92
0.63 0.62 0.63 0.66 0.66 0.64 0.62 0.60 0.58 0.55 0.51 0.49 0.50 0.47 0.41 0.33 0.29 0.28 0.28 0.31 0.37 0.43 0.45 0.47 0.52 0.63 0.72 0.68 0.64 0.67 0.79 0.97 1.04 1.18 1.24 1.22 1.19 1.28 1.29 1.14 1.06 0.97 0.87
0.75 0.74 0.71 0.68 0.65 0.64 0.63 0.61 0.62 0.59 0.55 0.49 0.46 0.46 0.43 0.32 0.32 0.31 0.29 0.34 0.41 0.47 0.50 0.51 0.48 0.51 0.51 0.51 0.57 0.63 0.72 0.93 1.21 1.37 1.32 1.25 1.12 1.10 1.11 1.07 1.07 1.03 0.98
0.90 0.84 0.76 0.68 0.65 0.62 0.55 0.58 0.62 0.59 0.54 0.48 0.44 0.45 0.44 0.37 0.34 0.32 0.31 0.36 0.46 0.52 0.55 0.55 0.45 0.40 0.47 0.52 0.56 0.61 0.72 0.85 1.09 1.42 1.50 1.27 1.17 1.11 1.14 1.16 1.18 1.20 1.11
0.89 0.82 0.71 0.63 0.63 0.63 0.62 0.62 0.60 0.56 0.52 0.52 0.50 0.48 0.45 0.37 0.33 0.33 0.32 0.37 0.48 0.51 0.51 0.52 0.55 0.53 0.50 0.52 0.56 0.66 0.81 0.93 1.02 1.11 1.39 1.22 1.01 0.99 1.03 1.06 1.13 1.16 1.08
0.87 0.74 0.61 0.54 0.55 0.56 0.56 0.54 0.52 0.52 0.50 0.46 0.42 0.43 0.46 0.42 0.36 0.33 0.31 0.38 0.45 0.47 0.46 0.45 0.44 0.46 0.50 0.61 0.73 0.94 1.07 1.18 1.14 1.28 1.42 1.36 1.22 1.12 0.98 0.97 1.15 1.19 1.13
0.68 0.58 0.53 0.50 0.46 0.43 0.42 0.46 0.47 0.48 0.45 0.38 0.36 0.38 0.39 0.37 0.27 0.24 0.26 0.33 0.41 0.44 0.48 0.50 0.44 0.41 0.52 0.68 0.91 1.17 1.29 1.36 1.23 1.32 1.55 1.58 1.41 1.37 1.31 1.17 1.22 1.20 1.13
0.54 0.49 0.49 0.42 0.34 0.31 0.35 0.41 0.42 0.38 0.37 0.36 0.37 0.34 0.30 0.23 0.20 0.18 0.19 0.23 0.32 0.41 0.48 0.56 0.56 0.50 0.57 0.77 0.97 1.15 1.31 1.33 1.33 1.38 1.39 1.40 1.46 1.46 1.37 1.26 1.18 1.12 1.07
0.47 0.46 0.44 0.37 0.23 0.21 0.30 0.34 0.33 0.36 0.35 0.32 0.33 0.31 0.26 0.23 0.16 0.15 0.16 0.16 0.19 0.35 0.52 0.56 0.58 0.57 0.62 0.82 0.98 1.21 1.42 1.48 1.43 1.41 1.26 1.18 1.14 1.13 1.13 1.04 0.94 0.85 0.82
0.43 0.44 0.39 0.33 0.27 0.21 0.25 0.28 0.28 0.30 0.26 0.23 0.24 0.26 0.23 0.24 0.18 0.11 0.12 0.13 0.15 0.26 0.41 0.47 0.53 0.57 0.74 1.04 1.21 1.36 1.52 1.60 1.58 1.41 1.21 1.10 0.96 0.87 0.85 0.87 0.83 0.76 0.69
0.45 0.42 0.39 0.37 0.31 0.23 0.21 0.17 0.19 0.22 0.23 0.22 0.23 0.25 0.24 0.24 0.18 0.14 0.16 0.18 0.19 0.26 0.40 0.52 0.62 0.70 0.90 1.21 1.40 1.57 1.61 1.50 1.31 1.22 1.10 1.02 0.87 0.78 0.78 0.71 0.68 0.66 0.68
0.38 0.32 0.29 0.26 0.25 0.24 0.19 0.11 0.10 0.11 0.10 0.14 0.16 0.16 0.19 0.19 0.12 0.14 0.16 0.16 0.18 0.22 0.36 0.55 0.72 0.85 1.05 1.27 1.43 1.47 1.44 1.33 1.21 1.02 0.92 0.94 0.91 0.81 0.75 0.64 0.57 0.53 0.60
0.31 0.25 0.20 0.17 0.16 0.16 0.20 0.15 0.06 0.04 0.04 0.05 0.06 0.06 0.08 0.10 0.09 0.12 0.14 0.17 0.21 0.26 0.37 0.57 0.70 0.80 0.99 1.20 1.33 1.30 1.19 1.12 1.02 0.89 0.82 0.79 0.78 0.74 0.70 0.60 0.50 0.50 0.56
0.28 0.21 0.14 0.11 0.11 0.12 0.18 0.24 0.20 0.11 0.06 0.06 0.04 0.04 0.05 0.07 0.08 0.12 0.14 0.19 0.22 0.28 0.38 0.56 0.67 0.77 0.94 1.08 1.13 1.12 1.08 0.99 0.89 0.82 0.77 0.70 0.64 0.60 0.55 0.49 0.45 0.47 0.47
0.16 0.10 0.09 0.11 0.10 0.11 0.14 0.15 0.18 0.22 0.24 0.20 0.10 0.05 0.06 0.08 0.10 0.11 0.15 0.19 0.24 0.28 0.41 0.57 0.68 0.73 0.80 0.87 0.93 0.98 1.00 0.92 0.81 0.75 0.74 0.70 0.63 0.55 0.47 0.43 0.42 0.39 0.38
0.09 0.11 0.10 0.09 0.09 0.08 0.10 0.11 0.12 0.16 0.19 0.21 0.18 0.12 0.09 0.12 0.15 0.18 0.20 0.24 0.30 0.37 0.46 0.57 0.63 0.68 0.70 0.70 0.75 0.81 0.84 0.82 0.75 0.70 0.68 0.66 0.59 0.52 0.43 0.35 0.31 0.21 0.24
0.07 0.04 0.05 0.06 0.05 0.05 0.07 0.09 0.09 0.12 0.16 0.19 0.20 0.17 0.17 0.24 0.30 0.31 0.28 0.25 0.29 0.37 0.44 0.51 0.56 0.60 0.58 0.57 0.59 0.63 0.65 0.66 0.62 0.59 0.57 0.55 0.48 0.38 0.33 0.28 0.25 0.23 0.25
0.05 0.02 0.01 0.03 0.04 0.04 0.04 0.05 0.07 0.09 0.14 0.19 0.18 0.15 0.22 0.30 0.35 0.36 0.35 0.33 0.34 0.38 0.41 0.42 0.45 0.47 0.46 0.45 0.45 0.47 0.50 0.54 0.55 0.56 0.53 0.47 0.38 0.32 0.27 0.23 0.18 0.16 0.16
0.02 0.02 0.02 0.02 0.02 0.02 0.02 0.03 0.06 0.08 0.10 0.13 0.16 0.17 0.25 0.28 0.32 0.35 0.38 0.39 0.39 0.39 0.37 0.37 0.38 0.38 0.38 0.38 0.37 0.37 0.40 0.43 0.49 0.53 0.53 0.47 0.36 0.29 0.23 0.18 0.15 0.13 0.13
0.01 0.01 0.01 0.01 0.01 0.01 0.01 0.03 0.04 0.06 0.08 0.10 0.12 0.16 0.22 0.29 0.35 0.39 0.40 0.40 0.39 0.38 0.34 0.31 0.33 0.36 0.35 0.32 0.31 0.33 0.35 0.39 0.45 0.51 0.55 0.48 0.36 0.27 0.20 0.17 0.15 0.14 0.10
0.01 0.01 0.01 0.01 0.01 0.01 0.02 0.02 0.03 0.03 0.05 0.08 0.11 0.14 0.19 0.27 0.34 0.41 0.45 0.42 0.40 0.39 0.36 0.34 0.34 0.33 0.29 0.25 0.23 0.22 0.23 0.28 0.37 0.46 0.48 0.46 0.35 0.25 0.17 0.15 0.13 0.11 0.10
0.01 0.02 0.02 0.01 0.01 0.02 0.02 0.02 0.02 0.03 0.03 0.05 0.07 0.09 0.13 0.17 0.23 0.32 0.40 0.45 0.44 0.44 0.41 0.39 0.38 0.34 0.28 0.21 0.16 0.14 0.19 0.26 0.32 0.37 0.42 0.39 0.29 0.22 0.18 0.16 0.12 0.09 0.08
0.01 0.01 0.01 0.01 0.01 0.01 0.01 0.02 0.02 0.02 0.02 0.03 0.04 0.05 0.07 0.10 0.14 0.20 0.27 0.34 0.39 0.44 0.48 0.50 0.48 0.37 0.28 0.22 0.19 0.20 0.21 0.21 0.23 0.26 0.30 0.31 0.23 0.20 0.19 0.16 0.10 0.08 0.08